Time,TemperatureF,DewpointF,PressureIn,WindDirection,WindDirectionDegrees,WindSpeedMPH,WindSpeedGustMPH,Humidity,HourlyPrecipIn,Conditions,Clouds,dailyrainin,SoftwareType,DateUTC
2014-01-21 00:02:00,22.5,11.4,24.92,SW,233,0.0,0.0,62,0.00,,---,0.00,VWS V14.01,2014-01-21 07:02:00,
2014-01-21 00:07:00,22.5,11.1,24.92,SSE,154,3.6,6.3,61,0.00,,---,0.00,VWS V14.01,2014-01-21 07:07:00,
2014-01-21 00:12:00,22.6,11.2,24.92,WSW,252,4.0,4.5,61,0.00,,---,0.00,VWS V14.01,2014-01-21 07:12:00,
2014-01-21 00:17:00,23.4,11.9,24.95,WSW,252,0.0,0.0,61,0.00,,---,0.00,VWS V14.01,2014-01-21 07:17:00,
2014-01-21 00:22:00,23.5,11.7,24.95,WSW,257,0.0,0.0,60,0.00,,---,0.00,VWS V14.01,2014-01-21 07:22:00,
2014-01-21 00:27:00,23.5,10.9,24.95,West,267,0.0,0.0,58,0.00,,---,0.00,VWS V14.01,2014-01-21 07:27:00,
2014-01-21 00:32:00,23.5,10.6,24.92,West,265,0.0,0.0,57,0.00,,---,0.00,VWS V14.01,2014-01-21 07:32:00,
2014-01-21 00:37:00,23.4,10.0,24.92,ENE,57,4.0,5.4,56,0.00,,---,0.00,VWS V14.01,2014-01-21 07:37:00,
2014-01-21 00:42:00,25.5,12.0,24.92,NE,41,5.8,8.7,56,0.00,,---,0.00,VWS V14.01,2014-01-21 07:42:00,
2014-01-21 00:47:00,26.8,12.0,24.92,WNW,296,0.0,0.0,53,0.00,,---,0.00,VWS V14.01,2014-01-21 07:47:00,
2014-01-21 00:52:00,27.0,11.3,24.92,SW,217,4.0,5.4,51,0.00,,---,0.00,VWS V14.01,2014-01-21 07:52:00,
2014-01-21 00:57:00,27.0,11.7,24.92,ENE,58,0.0,4.0,52,0.00,,---,0.00,VWS V14.01,2014-01-21 07:57:00,
2014-01-21 01:02:00,27.3,12.0,24.92,ENE,72,3.1,5.4,52,0.00,,---,0.00,VWS V14.01,2014-01-21 08:02:00,
2014-01-21 01:07:00,27.5,12.6,24.92,NE,35,5.8,8.3,53,0.00,,---,0.00,VWS V14.01,2014-01-21 08:07:00,
2014-01-21 01:12:00,27.5,13.1,24.92,NE,47,6.7,6.7,54,0.00,,---,0.00,VWS V14.01,2014-01-21 08:12:00,
2014-01-21 01:17:00,27.3,13.3,24.92,NE,38,4.0,8.1,55,0.00,,---,0.00,VWS V14.01,2014-01-21 08:17:00,
2014-01-21 01:22:00,27.0,13.4,24.92,ENE,62,4.9,6.3,56,0.00,,---,0.00,VWS V14.01,2014-01-21 08:22:00,
2014-01-21 01:27:00,26.6,13.8,24.92,North,8,6.3,7.2,58,0.00,,---,0.00,VWS V14.01,2014-01-21 08:27:00,
2014-01-21 01:32:00,26.1,13.3,24.92,NNE,31,2.7,2.7,58,0.00,,---,0.00,VWS V14.01,2014-01-21 08:32:00,
2014-01-21 01:36:00,25.9,13.5,24.92,ENE,74,0.0,0.0,59,0.00,,---,0.00,VWS V14.01,2014-01-21 08:36:00,
2014-01-21 01:41:00,25.5,13.2,24.92,ENE,72,0.0,3.1,59,0.00,,---,0.00,VWS V14.01,2014-01-21 08:41:00,
2014-01-21 01:46:00,25.3,13.0,24.92,NE,52,4.0,4.0,59,0.00,,---,0.00,VWS V14.01,2014-01-21 08:46:00,
2014-01-21 01:51:00,25.2,12.9,24.92,NE,52,0.0,0.0,59,0.00,,---,0.00,VWS V14.01,2014-01-21 08:51:00,
2014-01-21 01:56:00,24.8,13.3,24.92,ENE,71,0.0,0.0,61,0.00,,---,0.00,VWS V14.01,2014-01-21 08:56:00,
2014-01-21 02:01:00,24.4,12.9,24.92,ENE,71,0.0,0.0,61,0.00,,---,0.00,VWS V14.01,2014-01-21 09:01:00,
2014-01-21 02:06:00,24.3,13.1,24.92,NW,309,0.0,2.2,62,0.00,,---,0.00,VWS V14.01,2014-01-21 09:06:00,
2014-01-21 02:12:00,24.1,13.7,24.92,NW,309,0.0,0.0,64,0.00,,---,0.00,VWS V14.01,2014-01-21 09:12:00,
2014-01-21 02:17:00,23.9,13.9,24.92,NW,309,0.0,0.0,65,0.00,,---,0.00,VWS V14.01,2014-01-21 09:17:00,
2014-01-21 02:22:00,23.9,14.6,24.92,NW,309,0.0,0.0,67,0.00,,---,0.00,VWS V14.01,2014-01-21 09:22:00,
2014-01-21 02:27:00,23.7,14.7,24.92,NW,309,0.0,0.0,68,0.00,,---,0.00,VWS V14.01,2014-01-21 09:27:00,
2014-01-21 02:32:00,23.9,15.2,24.92,NW,309,0.0,0.0,69,0.00,,---,0.00,VWS V14.01,2014-01-21 09:32:00,
2014-01-21 02:37:00,23.7,14.7,24.92,NW,309,0.0,0.0,68,0.00,,---,0.00,VWS V14.01,2014-01-21 09:37:00,
2014-01-21 02:42:00,23.4,14.0,24.92,NW,309,0.0,0.0,67,0.00,,---,0.00,VWS V14.01,2014-01-21 09:42:00,
2014-01-21 02:47:00,23.0,13.7,24.95,NW,309,0.0,0.0,67,0.00,,---,0.00,VWS V14.01,2014-01-21 09:47:00,
2014-01-21 02:52:00,22.8,13.2,24.95,NW,309,0.0,0.0,66,0.00,,---,0.00,VWS V14.01,2014-01-21 09:52:00,
2014-01-21 02:57:00,22.6,13.0,24.95,NW,309,0.0,0.0,66,0.00,,---,0.00,VWS V14.01,2014-01-21 09:57:00,
2014-01-21 03:02:00,22.6,13.0,24.92,NW,309,0.0,0.0,66,0.00,,---,0.00,VWS V14.01,2014-01-21 10:02:00,
2014-01-21 03:07:00,22.6,13.0,24.92,NW,309,0.0,0.0,66,0.00,,---,0.00,VWS V14.01,2014-01-21 10:07:00,
2014-01-21 03:12:00,22.6,12.7,24.92,NW,309,0.0,0.0,65,0.00,,---,0.00,VWS V14.01,2014-01-21 10:12:00,
2014-01-21 03:17:00,22.6,12.7,24.92,NW,309,0.0,0.0,65,0.00,,---,0.00,VWS V14.01,2014-01-21 10:17:00,
2014-01-21 03:22:00,22.5,12.5,24.92,NW,309,0.0,0.0,65,0.00,,---,0.00,VWS V14.01,2014-01-21 10:22:00,
2014-01-21 03:27:00,22.1,12.1,24.92,NW,309,0.0,0.0,65,0.00,,---,0.00,VWS V14.01,2014-01-21 10:27:00,
2014-01-21 03:32:00,21.7,11.4,24.92,NW,309,0.0,0.0,64,0.00,,---,0.00,VWS V14.01,2014-01-21 10:32:00,
2014-01-21 03:37:00,21.6,11.3,24.92,NW,309,0.0,0.0,64,0.00,,---,0.00,VWS V14.01,2014-01-21 10:37:00,
2014-01-21 03:42:00,21.7,11.8,24.92,NW,309,0.0,0.0,65,0.00,,---,0.00,VWS V14.01,2014-01-21 10:42:00,
2014-01-21 03:47:00,21.6,11.6,24.95,NW,309,0.0,0.0,65,0.00,,---,0.00,VWS V14.01,2014-01-21 10:47:00,
2014-01-21 03:52:00,21.6,11.6,24.95,NW,309,0.0,0.0,65,0.00,,---,0.00,VWS V14.01,2014-01-21 10:52:00,
2014-01-21 03:57:00,21.4,11.5,24.95,NW,309,0.0,0.0,65,0.00,,---,0.00,VWS V14.01,2014-01-21 10:57:00,
2014-01-21 04:02:00,21.2,11.3,24.95,NW,309,0.0,0.0,65,0.00,,---,0.00,VWS V14.01,2014-01-21 11:02:00,
2014-01-21 04:06:00,21.0,11.1,24.95,NW,309,0.0,0.0,65,0.00,,---,0.00,VWS V14.01,2014-01-21 11:06:00,
2014-01-21 04:11:00,20.8,10.9,24.95,NW,309,0.0,0.0,65,0.00,,---,0.00,VWS V14.01,2014-01-21 11:11:00,
2014-01-21 04:16:00,20.7,10.8,24.95,NW,309,0.0,0.0,65,0.00,,---,0.00,VWS V14.01,2014-01-21 11:16:00,
2014-01-21 04:21:00,20.8,11.3,24.95,NW,309,0.0,0.0,66,0.00,,---,0.00,VWS V14.01,2014-01-21 11:21:00,
2014-01-21 04:26:00,20.8,11.3,24.95,NW,309,0.0,0.0,66,0.00,,---,0.00,VWS V14.01,2014-01-21 11:26:00,
2014-01-21 04:31:00,20.5,10.9,24.95,NW,309,0.0,0.0,66,0.00,,---,0.00,VWS V14.01,2014-01-21 11:31:00,
2014-01-21 04:36:00,20.3,10.8,24.95,NW,309,0.0,0.0,66,0.00,,---,0.00,VWS V14.01,2014-01-21 11:36:00,
2014-01-21 04:41:00,20.3,10.8,24.95,NW,309,0.0,0.0,66,0.00,,---,0.00,VWS V14.01,2014-01-21 11:41:00,
2014-01-21 04:46:00,20.3,10.8,24.95,NW,309,0.0,0.0,66,0.00,,---,0.00,VWS V14.01,2014-01-21 11:46:00,
2014-01-21 04:51:00,20.3,11.1,24.95,NW,309,0.0,0.0,67,0.00,,---,0.00,VWS V14.01,2014-01-21 11:51:00,
2014-01-21 04:56:00,20.1,10.9,24.95,NW,309,0.0,0.0,67,0.00,,---,0.00,VWS V14.01,2014-01-21 11:56:00,
2014-01-21 05:01:00,20.1,10.9,24.95,NW,309,0.0,0.0,67,0.00,,---,0.00,VWS V14.01,2014-01-21 12:01:00,
2014-01-21 05:06:00,20.1,10.9,24.95,NW,309,0.0,0.0,67,0.00,,---,0.00,VWS V14.01,2014-01-21 12:06:00,
2014-01-21 05:11:00,20.3,11.1,24.95,NW,309,0.0,0.0,67,0.00,,---,0.00,VWS V14.01,2014-01-21 12:11:00,
2014-01-21 05:16:00,20.3,11.1,24.95,NW,309,0.0,0.0,67,0.00,,---,0.00,VWS V14.01,2014-01-21 12:16:00,
2014-01-21 05:21:00,20.1,10.9,24.95,NW,309,0.0,0.0,67,0.00,,---,0.00,VWS V14.01,2014-01-21 12:21:00,
2014-01-21 05:26:00,19.9,10.8,24.95,NW,309,0.0,0.0,67,0.00,,---,0.00,VWS V14.01,2014-01-21 12:26:00,
2014-01-21 05:31:00,19.9,10.8,24.95,NW,309,0.0,0.0,67,0.00,,---,0.00,VWS V14.01,2014-01-21 12:31:00,
2014-01-21 05:36:00,19.9,10.8,24.95,NW,309,0.0,0.0,67,0.00,,---,0.00,VWS V14.01,2014-01-21 12:36:00,
2014-01-21 05:41:00,19.9,10.8,24.95,NW,308,0.0,0.0,67,0.00,,---,0.00,VWS V14.01,2014-01-21 12:41:00,
2014-01-21 05:46:00,20.1,11.3,24.95,WNW,298,3.1,3.1,68,0.00,,---,0.00,VWS V14.01,2014-01-21 12:46:00,
2014-01-21 05:51:00,20.1,11.3,24.95,WNW,295,3.1,3.1,68,0.00,,---,0.00,VWS V14.01,2014-01-21 12:51:00,
2014-01-21 05:56:00,20.3,11.4,24.95,WNW,295,0.0,0.0,68,0.00,,---,0.00,VWS V14.01,2014-01-21 12:56:00,
2014-01-21 06:01:00,20.3,11.4,24.95,WNW,294,0.0,0.0,68,0.00,,---,0.00,VWS V14.01,2014-01-21 13:01:00,
2014-01-21 06:06:00,20.5,11.6,24.95,West,271,2.7,4.0,68,0.00,,---,0.00,VWS V14.01,2014-01-21 13:06:00,
2014-01-21 06:11:00,20.5,11.3,24.95,West,270,0.0,0.0,67,0.00,,---,0.00,VWS V14.01,2014-01-21 13:11:00,
2014-01-21 06:16:00,20.7,11.4,24.95,West,271,0.0,0.0,67,0.00,,---,0.00,VWS V14.01,2014-01-21 13:16:00,
2014-01-21 06:21:00,20.7,11.4,24.95,West,271,2.7,2.7,67,0.00,,---,0.00,VWS V14.01,2014-01-21 13:21:00,
2014-01-21 06:26:00,20.7,11.1,24.95,West,271,3.6,3.6,66,0.00,,---,0.00,VWS V14.01,2014-01-21 13:26:00,
2014-01-21 06:31:00,20.7,11.1,24.95,West,269,3.6,3.6,66,0.00,,---,0.00,VWS V14.01,2014-01-21 13:31:00,
2014-01-21 06:36:00,20.8,11.3,24.95,West,269,3.6,3.6,66,0.00,,---,0.00,VWS V14.01,2014-01-21 13:36:00,
2014-01-21 06:41:00,21.0,11.5,24.95,West,269,3.1,3.6,66,0.00,,---,0.00,VWS V14.01,2014-01-21 13:41:00,
2014-01-21 06:46:00,21.0,11.1,24.95,West,273,4.0,4.0,65,0.00,,---,0.00,VWS V14.01,2014-01-21 13:46:00,
2014-01-21 06:51:00,21.0,11.1,24.95,West,270,4.9,4.9,65,0.00,,---,0.00,VWS V14.01,2014-01-21 13:51:00,
2014-01-21 06:56:00,21.4,11.1,24.95,West,267,4.9,5.4,64,0.00,,---,0.00,VWS V14.01,2014-01-21 13:56:00,
2014-01-21 07:01:00,21.7,11.4,24.92,WSW,243,3.6,4.0,64,0.00,,---,0.00,VWS V14.01,2014-01-21 14:01:00,
2014-01-21 07:06:00,21.9,11.6,24.92,West,261,3.1,3.1,64,0.00,,---,0.00,VWS V14.01,2014-01-21 14:06:00,
2014-01-21 07:11:00,22.1,11.4,24.92,West,267,2.7,2.7,63,0.00,,---,0.00,VWS V14.01,2014-01-21 14:11:00,
2014-01-21 07:16:00,22.1,11.4,24.92,West,267,0.0,0.0,63,0.00,,---,0.00,VWS V14.01,2014-01-21 14:16:00,
2014-01-21 07:21:00,22.5,11.4,24.92,West,272,3.6,3.6,62,0.00,,---,0.00,VWS V14.01,2014-01-21 14:21:00,
2014-01-21 07:26:00,22.5,11.1,24.92,West,261,3.6,5.4,61,0.00,,---,0.00,VWS V14.01,2014-01-21 14:26:00,
2014-01-21 07:31:00,22.1,10.4,24.92,WSW,239,4.0,4.0,60,0.00,,---,0.00,VWS V14.01,2014-01-21 14:31:00,
2014-01-21 07:36:00,21.7,9.6,24.92,WSW,240,4.9,4.9,59,0.00,,---,0.00,VWS V14.01,2014-01-21 14:36:00,
2014-01-21 07:41:00,21.6,9.8,24.92,West,265,4.0,4.0,60,0.00,,---,0.00,VWS V14.01,2014-01-21 14:41:00,
2014-01-21 07:46:00,21.7,10.0,24.92,WSW,250,4.0,4.0,60,0.00,,---,0.00,VWS V14.01,2014-01-21 14:46:00,
2014-01-21 07:51:00,22.1,10.7,24.92,WNW,288,2.7,3.1,61,0.00,,---,0.00,VWS V14.01,2014-01-21 14:51:00,
2014-01-21 07:56:00,22.3,10.9,24.92,WNW,284,3.1,3.6,61,0.00,,---,0.00,VWS V14.01,2014-01-21 14:56:00,
2014-01-21 08:01:00,22.5,10.7,24.92,WNW,300,2.7,4.0,60,0.00,,---,0.00,VWS V14.01,2014-01-21 15:01:00,
2014-01-21 08:06:00,22.3,10.5,24.92,West,266,4.0,4.0,60,0.00,,---,0.00,VWS V14.01,2014-01-21 15:06:00,
2014-01-21 08:11:00,21.9,9.8,24.92,West,260,3.1,3.1,59,0.00,,---,0.00,VWS V14.01,2014-01-21 15:11:00,
2014-01-21 08:16:00,21.7,9.6,24.92,West,275,3.1,3.1,59,0.00,,---,0.00,VWS V14.01,2014-01-21 15:16:00,
2014-01-21 08:21:00,21.7,9.6,24.92,WNW,282,2.7,2.7,59,0.00,,---,0.00,VWS V14.01,2014-01-21 15:21:00,
2014-01-21 08:26:00,21.9,10.2,24.92,WNW,282,2.7,2.7,60,0.00,,---,0.00,VWS V14.01,2014-01-21 15:26:00,
2014-01-21 08:31:00,22.3,10.5,24.92,WNW,282,2.7,3.1,60,0.00,,---,0.00,VWS V14.01,2014-01-21 15:31:00,
2014-01-21 08:36:00,23.0,11.2,24.92,WNW,291,0.0,0.0,60,0.00,,---,0.00,VWS V14.01,2014-01-21 15:36:00,
2014-01-21 08:41:00,23.7,11.5,24.92,WNW,291,0.0,0.0,59,0.00,,---,0.00,VWS V14.01,2014-01-21 15:41:00,
2014-01-21 08:46:00,24.1,11.1,24.92,WNW,287,0.0,0.0,57,0.00,,---,0.00,VWS V14.01,2014-01-21 15:46:00,
2014-01-21 08:51:00,24.4,11.0,24.92,WNW,286,0.0,0.0,56,0.00,,---,0.00,VWS V14.01,2014-01-21 15:51:00,
2014-01-21 08:56:00,24.4,10.6,24.92,WNW,286,0.0,0.0,55,0.00,,---,0.00,VWS V14.01,2014-01-21 15:56:00,
2014-01-21 09:01:00,24.4,10.6,24.92,WNW,289,0.0,0.0,55,0.00,,---,0.00,VWS V14.01,2014-01-21 16:01:00,
2014-01-21 09:06:00,24.3,10.8,24.92,WNW,289,0.0,0.0,56,0.00,,---,0.00,VWS V14.01,2014-01-21 16:06:00,
2014-01-21 09:11:00,24.4,11.4,24.92,WNW,289,0.0,0.0,57,0.00,,---,0.00,VWS V14.01,2014-01-21 16:11:00,
2014-01-21 09:16:00,25.2,12.1,24.92,WNW,289,0.0,0.0,57,0.00,,---,0.00,VWS V14.01,2014-01-21 16:16:00,
2014-01-21 09:21:00,25.7,12.2,24.92,WNW,289,0.0,0.0,56,0.00,,---,0.00,VWS V14.01,2014-01-21 16:21:00,
2014-01-21 09:26:00,25.9,11.9,24.92,WNW,289,0.0,0.0,55,0.00,,---,0.00,VWS V14.01,2014-01-21 16:26:00,
2014-01-21 09:31:00,26.4,12.9,24.92,WNW,289,0.0,0.0,56,0.00,,---,0.00,VWS V14.01,2014-01-21 16:31:00,
2014-01-21 09:36:00,27.5,12.6,24.92,SE,133,2.7,3.6,53,0.00,,---,0.00,VWS V14.01,2014-01-21 16:36:00,
2014-01-21 09:41:00,27.7,12.8,24.92,NE,52,0.0,2.7,53,0.00,,---,0.00,VWS V14.01,2014-01-21 16:41:00,
2014-01-21 09:46:00,28.4,13.5,24.92,NE,52,2.7,2.7,53,0.00,,---,0.00,VWS V14.01,2014-01-21 16:46:00,
2014-01-21 09:51:00,29.5,14.0,24.92,ENE,70,4.5,4.5,52,0.00,,---,0.00,VWS V14.01,2014-01-21 16:51:00,
2014-01-21 09:56:00,30.6,14.1,24.92,ESE,113,4.5,4.9,50,0.00,,---,0.00,VWS V14.01,2014-01-21 16:56:00,
2014-01-21 10:01:00,31.3,14.4,24.92,East,87,0.0,2.7,49,0.00,,---,0.00,VWS V14.01,2014-01-21 17:01:00,
2014-01-21 10:06:00,32.0,14.1,24.92,ENE,65,3.1,3.6,47,0.00,,---,0.00,VWS V14.01,2014-01-21 17:06:00,
2014-01-21 10:11:00,32.5,14.1,24.92,East,89,0.0,0.0,46,0.00,,---,0.00,VWS V14.01,2014-01-21 17:11:00,
2014-01-21 10:16:00,33.3,14.2,24.92,East,83,0.0,0.0,45,0.00,,---,0.00,VWS V14.01,2014-01-21 17:16:00,
2014-01-21 10:21:00,34.0,14.4,24.92,East,97,0.0,0.0,44,0.00,,---,0.00,VWS V14.01,2014-01-21 17:21:00,
2014-01-21 10:26:00,34.5,14.3,24.92,East,98,0.0,0.0,43,0.00,,---,0.00,VWS V14.01,2014-01-21 17:26:00,
2014-01-21 10:31:00,34.7,14.5,24.92,East,98,0.0,0.0,43,0.00,,---,0.00,VWS V14.01,2014-01-21 17:31:00,
2014-01-21 10:36:00,34.7,14.5,24.92,SE,128,0.0,0.0,43,0.00,,---,0.00,VWS V14.01,2014-01-21 17:36:00,
2014-01-21 10:41:00,34.5,14.3,24.92,SW,227,2.7,2.7,43,0.00,,---,0.00,VWS V14.01,2014-01-21 17:41:00,
2014-01-21 10:46:00,34.9,14.1,24.92,West,273,0.0,3.1,42,0.00,,---,0.00,VWS V14.01,2014-01-21 17:46:00,
2014-01-21 10:51:00,35.1,14.3,24.92,North,349,2.2,2.7,42,0.00,,---,0.00,VWS V14.01,2014-01-21 17:51:00,
2014-01-21 10:56:00,35.4,14.6,24.92,East,87,3.6,4.0,42,0.00,,---,0.00,VWS V14.01,2014-01-21 17:56:00,
2014-01-21 11:01:00,35.8,14.4,24.89,NW,306,0.0,0.0,41,0.00,,---,0.00,VWS V14.01,2014-01-21 18:01:00,
2014-01-21 11:06:00,36.1,14.7,24.89,NW,306,0.0,0.0,41,0.00,,---,0.00,VWS V14.01,2014-01-21 18:06:00,
2014-01-21 11:11:00,36.7,14.6,24.89,NW,306,0.0,0.0,40,0.00,,---,0.00,VWS V14.01,2014-01-21 18:11:00,
2014-01-21 11:16:00,37.8,15.0,24.89,NW,306,0.0,0.0,39,0.00,,---,0.00,VWS V14.01,2014-01-21 18:16:00,
2014-01-21 11:21:00,39.2,16.3,24.89,NW,305,0.0,0.0,39,0.00,,---,0.00,VWS V14.01,2014-01-21 18:21:00,
2014-01-21 11:26:00,40.5,16.9,24.89,NW,321,0.0,0.0,38,0.00,,---,0.00,VWS V14.01,2014-01-21 18:26:00,
2014-01-21 11:31:00,41.4,17.7,24.89,North,0,0.0,0.0,38,0.00,,---,0.00,VWS V14.01,2014-01-21 18:31:00,
2014-01-21 11:36:00,41.9,18.2,24.89,ENE,65,3.6,4.9,38,0.00,,---,0.00,VWS V14.01,2014-01-21 18:36:00,
2014-01-21 11:41:00,42.6,18.8,24.89,ENE,58,5.4,8.1,38,0.00,,---,0.00,VWS V14.01,2014-01-21 18:41:00,
2014-01-21 11:46:00,43.0,17.9,24.89,North,353,5.8,8.7,36,0.00,,---,0.00,VWS V14.01,2014-01-21 18:46:00,
2014-01-21 11:51:00,43.2,18.0,24.89,NE,44,4.0,5.4,36,0.00,,---,0.00,VWS V14.01,2014-01-21 18:51:00,
2014-01-21 11:56:00,43.0,17.9,24.89,NE,40,8.3,8.3,36,0.00,,---,0.00,VWS V14.01,2014-01-21 18:56:00,
2014-01-21 12:01:00,42.6,17.5,24.89,NE,47,7.6,7.6,36,0.00,,---,0.00,VWS V14.01,2014-01-21 19:01:00,
2014-01-21 12:06:00,42.6,17.5,24.89,ENE,63,5.4,6.3,36,0.00,,---,0.00,VWS V14.01,2014-01-21 19:06:00,
2014-01-21 12:11:00,42.8,18.4,24.89,NNE,23,4.0,5.4,37,0.00,,---,0.00,VWS V14.01,2014-01-21 19:11:00,
2014-01-21 12:16:00,43.0,17.9,24.86,NNE,17,6.3,6.3,36,0.00,,---,0.00,VWS V14.01,2014-01-21 19:16:00,
2014-01-21 12:21:00,43.3,17.5,24.86,NNE,21,6.3,6.3,35,0.00,,---,0.00,VWS V14.01,2014-01-21 19:21:00,
2014-01-21 12:26:00,43.5,17.7,24.86,NNE,32,5.4,6.3,35,0.00,,---,0.00,VWS V14.01,2014-01-21 19:26:00,
2014-01-21 12:31:00,43.5,17.7,24.89,North,11,3.1,5.4,35,0.00,,---,0.00,VWS V14.01,2014-01-21 19:31:00,
2014-01-21 12:36:00,43.7,17.2,24.89,NNE,29,6.3,6.3,34,0.00,,---,0.00,VWS V14.01,2014-01-21 19:36:00,
2014-01-21 12:41:00,44.2,17.7,24.89,NE,50,5.4,5.4,34,0.00,,---,0.00,VWS V14.01,2014-01-21 19:41:00,
2014-01-21 12:46:00,44.6,17.3,24.86,ENE,75,3.6,6.3,33,0.00,,---,0.00,VWS V14.01,2014-01-21 19:46:00,
2014-01-21 12:51:00,45.0,17.6,24.86,NE,46,6.3,6.3,33,0.00,,---,0.00,VWS V14.01,2014-01-21 19:51:00,
2014-01-21 12:56:00,44.8,17.5,24.86,NE,53,3.1,3.1,33,0.00,,---,0.00,VWS V14.01,2014-01-21 19:56:00,
2014-01-21 13:01:00,45.3,18.6,24.86,ENE,59,2.7,3.6,34,0.00,,---,0.00,VWS V14.01,2014-01-21 20:01:00,
2014-01-21 13:06:00,45.9,18.4,24.86,NE,55,3.6,4.0,33,0.00,,---,0.00,VWS V14.01,2014-01-21 20:06:00,
2014-01-21 13:11:00,46.0,18.6,24.86,ENE,64,4.0,4.0,33,0.00,,---,0.00,VWS V14.01,2014-01-21 20:11:00,
2014-01-21 13:16:00,46.0,18.6,24.86,NE,43,5.8,6.3,33,0.00,,---,0.00,VWS V14.01,2014-01-21 20:16:00,
2014-01-21 13:21:00,46.0,18.6,24.86,ENE,59,5.8,6.3,33,0.00,,---,0.00,VWS V14.01,2014-01-21 20:21:00,
2014-01-21 13:26:00,46.2,18.7,24.86,ENE,60,4.9,4.9,33,0.00,,---,0.00,VWS V14.01,2014-01-21 20:26:00,
2014-01-21 13:31:00,46.4,18.9,24.86,ENE,63,8.3,8.3,33,0.00,,---,0.00,VWS V14.01,2014-01-21 20:31:00,
2014-01-21 13:36:00,45.9,18.4,24.86,ENE,69,6.3,7.6,33,0.00,,---,0.00,VWS V14.01,2014-01-21 20:36:00,
2014-01-21 13:41:00,45.5,18.1,24.86,ENE,59,6.3,6.3,33,0.00,,---,0.00,VWS V14.01,2014-01-21 20:41:00,
2014-01-21 13:46:00,45.3,17.2,24.86,NE,50,4.9,4.9,32,0.00,,---,0.00,VWS V14.01,2014-01-21 20:46:00,
2014-01-21 13:51:00,45.1,17.1,24.86,ENE,61,4.5,6.3,32,0.00,,---,0.00,VWS V14.01,2014-01-21 20:51:00,
2014-01-21 13:56:00,44.8,16.7,24.86,NE,50,0.0,2.7,32,0.00,,---,0.00,VWS V14.01,2014-01-21 20:56:00,
2014-01-21 14:01:00,45.1,17.1,24.86,East,84,6.3,6.3,32,0.00,,---,0.00,VWS V14.01,2014-01-21 21:01:00,
2014-01-21 14:06:00,45.7,17.5,24.86,East,79,3.6,4.9,32,0.00,,---,0.00,VWS V14.01,2014-01-21 21:06:00,
2014-01-21 14:11:00,46.2,18.0,24.86,ENE,71,0.0,2.7,32,0.00,,---,0.00,VWS V14.01,2014-01-21 21:11:00,
2014-01-21 14:16:00,46.6,17.6,24.86,NE,49,6.3,6.3,31,0.00,,---,0.00,VWS V14.01,2014-01-21 21:16:00,
2014-01-21 14:21:00,46.8,17.7,24.86,ENE,61,0.0,0.0,31,0.00,,---,0.00,VWS V14.01,2014-01-21 21:21:00,
2014-01-21 14:26:00,47.5,18.4,24.86,ENE,71,2.7,2.7,31,0.00,,---,0.00,VWS V14.01,2014-01-21 21:26:00,
2014-01-21 14:31:00,47.5,17.6,24.83,ENE,57,3.6,3.6,30,0.00,,---,0.00,VWS V14.01,2014-01-21 21:31:00,
2014-01-21 14:36:00,47.1,17.3,24.83,NE,47,5.4,5.4,30,0.00,,---,0.00,VWS V14.01,2014-01-21 21:36:00,
2014-01-21 14:41:00,46.8,17.0,24.83,ENE,61,6.3,6.3,30,0.00,,---,0.00,VWS V14.01,2014-01-21 21:41:00,
2014-01-21 14:46:00,46.4,16.7,24.83,NE,55,4.9,4.9,30,0.00,,---,0.00,VWS V14.01,2014-01-21 21:46:00,
2014-01-21 14:51:00,46.2,16.5,24.83,NE,47,2.2,3.6,30,0.00,,---,0.00,VWS V14.01,2014-01-21 21:51:00,
2014-01-21 14:56:00,46.2,17.3,24.83,NE,54,2.2,3.6,31,0.00,,---,0.00,VWS V14.01,2014-01-21 21:56:00,
2014-01-21 15:01:00,46.4,16.7,24.83,ENE,61,6.3,6.3,30,0.00,,---,0.00,VWS V14.01,2014-01-21 22:01:00,
2014-01-21 15:06:00,46.0,17.1,24.83,NE,53,4.9,6.7,31,0.00,,---,0.00,VWS V14.01,2014-01-21 22:06:00,
2014-01-21 15:11:00,45.9,17.0,24.83,East,83,6.3,6.3,31,0.00,,---,0.00,VWS V14.01,2014-01-21 22:11:00,
2014-01-21 15:16:00,45.1,16.3,24.83,East,80,5.4,5.4,31,0.00,,---,0.00,VWS V14.01,2014-01-21 22:16:00,
2014-01-21 15:21:00,44.8,16.0,24.83,East,100,5.4,6.3,31,0.00,,---,0.00,VWS V14.01,2014-01-21 22:21:00,
2014-01-21 15:26:00,44.8,16.7,24.83,ENE,58,5.4,5.8,32,0.00,,---,0.00,VWS V14.01,2014-01-21 22:26:00,
2014-01-21 15:31:00,44.8,16.0,24.83,East,95,2.7,4.9,31,0.00,,---,0.00,VWS V14.01,2014-01-21 22:31:00,
2014-01-21 15:36:00,44.6,15.9,24.83,ENE,62,5.8,5.8,31,0.00,,---,0.00,VWS V14.01,2014-01-21 22:36:00,
2014-01-21 15:41:00,44.4,16.4,24.83,ESE,121,3.1,3.1,32,0.00,,---,0.00,VWS V14.01,2014-01-21 22:41:00,
2014-01-21 15:46:00,44.2,16.3,24.86,ESE,109,5.8,6.3,32,0.00,,---,0.00,VWS V14.01,2014-01-21 22:46:00,
2014-01-21 17:10:00,36.3,13.8,24.86,SSE,150,0.0,0.0,39,0.00,,---,0.00,VWS V14.01,2014-01-22 00:10:00,
2014-01-21 17:15:00,36.1,13.6,24.86,SSE,150,0.0,0.0,39,0.00,,---,0.00,VWS V14.01,2014-01-22 00:15:00,
2014-01-21 17:20:00,36.0,14.0,24.86,SSE,150,0.0,0.0,40,0.00,,---,0.00,VWS V14.01,2014-01-22 00:20:00,
2014-01-21 17:31:00,35.6,13.7,24.86,SSE,150,0.0,0.0,40,0.00,,---,0.00,VWS V14.01,2014-01-22 00:31:00,
2014-01-21 17:36:00,35.2,13.4,24.86,SSW,192,0.0,0.0,40,0.00,,---,0.00,VWS V14.01,2014-01-22 00:36:00,
2014-01-21 17:41:00,35.1,13.8,24.86,WSW,254,0.0,0.0,41,0.00,,---,0.00,VWS V14.01,2014-01-22 00:41:00,
2014-01-21 17:46:00,35.1,13.8,24.86,West,261,2.2,3.1,41,0.00,,---,0.00,VWS V14.01,2014-01-22 00:46:00,
2014-01-21 17:51:00,34.9,13.6,24.86,WSW,248,0.0,0.0,41,0.00,,---,0.00,VWS V14.01,2014-01-22 00:51:00,
2014-01-21 17:56:00,34.7,13.4,24.86,WSW,248,0.0,0.0,41,0.00,,---,0.00,VWS V14.01,2014-01-22 00:56:00,
2014-01-21 18:01:00,34.5,13.3,24.86,West,280,2.7,3.6,41,0.00,,---,0.00,VWS V14.01,2014-01-22 01:01:00,
2014-01-21 18:06:00,34.2,12.9,24.86,West,272,3.6,4.0,41,0.00,,---,0.00,VWS V14.01,2014-01-22 01:06:00,
2014-01-21 18:11:00,34.0,13.3,24.86,West,266,3.1,3.1,42,0.00,,---,0.00,VWS V14.01,2014-01-22 01:11:00,
2014-01-21 18:16:00,33.8,13.1,24.86,WSW,255,3.6,5.4,42,0.00,,---,0.00,VWS V14.01,2014-01-22 01:16:00,
2014-01-21 18:21:00,33.6,13.5,24.86,West,275,5.4,6.3,43,0.00,,---,0.00,VWS V14.01,2014-01-22 01:21:00,
2014-01-21 18:26:00,33.6,13.5,24.86,WSW,245,3.6,4.0,43,0.00,,---,0.00,VWS V14.01,2014-01-22 01:26:00,
2014-01-21 18:31:00,33.6,13.5,24.86,WSW,237,4.0,4.5,43,0.00,,---,0.00,VWS V14.01,2014-01-22 01:31:00,
2014-01-21 18:36:00,33.4,13.4,24.86,WSW,247,4.0,4.0,43,0.00,,---,0.00,VWS V14.01,2014-01-22 01:36:00,
2014-01-21 18:41:00,33.3,13.7,24.86,West,277,4.0,4.0,44,0.00,,---,0.00,VWS V14.01,2014-01-22 01:41:00,
2014-01-21 18:46:00,33.1,13.6,24.86,West,266,4.0,4.0,44,0.00,,---,0.00,VWS V14.01,2014-01-22 01:46:00,
2014-01-21 18:51:00,32.7,13.7,24.86,West,269,5.4,5.4,45,0.00,,---,0.00,VWS V14.01,2014-01-22 01:51:00,
2014-01-21 18:56:00,32.4,13.4,24.86,WSW,245,5.4,6.3,45,0.00,,---,0.00,VWS V14.01,2014-01-22 01:56:00,
2014-01-21 19:01:00,32.2,13.7,24.86,West,262,7.6,7.6,46,0.00,,---,0.00,VWS V14.01,2014-01-22 02:01:00,
2014-01-21 19:06:00,31.6,13.7,24.86,West,264,4.9,4.9,47,0.00,,---,0.00,VWS V14.01,2014-01-22 02:06:00,
2014-01-21 19:11:00,31.3,13.4,24.86,West,267,4.9,4.9,47,0.00,,---,0.00,VWS V14.01,2014-01-22 02:11:00,
2014-01-21 19:16:00,31.6,14.2,24.86,West,272,4.0,4.0,48,0.00,,---,0.00,VWS V14.01,2014-01-22 02:16:00,
2014-01-21 19:21:00,32.0,14.6,24.86,SW,231,4.0,4.9,48,0.00,,---,0.00,VWS V14.01,2014-01-22 02:21:00,
2014-01-21 19:26:00,32.0,14.1,24.86,WNW,282,5.8,5.8,47,0.00,,---,0.00,VWS V14.01,2014-01-22 02:26:00,
2014-01-21 19:31:00,31.8,14.4,24.86,West,274,3.6,5.4,48,0.00,,---,0.00,VWS V14.01,2014-01-22 02:31:00,
2014-01-21 19:36:00,31.6,14.2,24.86,West,275,6.3,7.2,48,0.00,,---,0.00,VWS V14.01,2014-01-22 02:36:00,
2014-01-21 19:41:00,31.1,14.2,24.86,West,259,6.7,6.7,49,0.00,,---,0.00,VWS V14.01,2014-01-22 02:41:00,
2014-01-21 19:46:00,30.7,14.3,24.86,WSW,256,5.4,5.4,50,0.00,,---,0.00,VWS V14.01,2014-01-22 02:46:00,
2014-01-21 19:51:00,30.7,14.3,24.86,WSW,238,3.1,5.4,50,0.00,,---,0.00,VWS V14.01,2014-01-22 02:51:00,
2014-01-21 19:56:00,30.6,14.6,24.86,SW,232,4.9,4.9,51,0.00,,---,0.00,VWS V14.01,2014-01-22 02:56:00,
2014-01-21 20:01:00,30.6,14.6,24.86,SW,230,5.8,5.8,51,0.00,,---,0.00,VWS V14.01,2014-01-22 03:01:00,
2014-01-21 20:06:00,30.9,14.9,24.86,West,261,3.6,4.0,51,0.00,,---,0.00,VWS V14.01,2014-01-22 03:06:00,
2014-01-21 20:11:00,31.1,15.1,24.86,West,264,3.6,4.0,51,0.00,,---,0.00,VWS V14.01,2014-01-22 03:11:00,
2014-01-21 20:16:00,31.3,14.8,24.83,West,273,3.6,4.0,50,0.00,,---,0.00,VWS V14.01,2014-01-22 03:16:00,
2014-01-21 20:21:00,31.1,14.6,24.83,WNW,303,3.1,4.0,50,0.00,,---,0.00,VWS V14.01,2014-01-22 03:21:00,
2014-01-21 20:26:00,30.4,13.5,24.83,West,277,5.4,6.3,49,0.00,,---,0.00,VWS V14.01,2014-01-22 03:26:00,
2014-01-21 20:31:00,30.0,14.5,24.86,West,281,3.6,4.5,52,0.00,,---,0.00,VWS V14.01,2014-01-22 03:31:00,
2014-01-21 20:36:00,29.8,14.4,24.86,West,276,5.4,5.4,52,0.00,,---,0.00,VWS V14.01,2014-01-22 03:36:00,
2014-01-21 20:41:00,29.8,14.8,24.86,West,265,4.9,4.9,53,0.00,,---,0.00,VWS V14.01,2014-01-22 03:41:00,
2014-01-21 20:46:00,30.0,15.0,24.83,West,274,3.6,4.0,53,0.00,,---,0.00,VWS V14.01,2014-01-22 03:46:00,
2014-01-21 20:51:00,30.6,15.0,24.83,West,262,3.6,4.9,52,0.00,,---,0.00,VWS V14.01,2014-01-22 03:51:00,
2014-01-21 20:56:00,30.7,14.8,24.83,West,263,4.0,4.5,51,0.00,,---,0.00,VWS V14.01,2014-01-22 03:56:00,
2014-01-21 21:01:00,30.7,14.8,24.83,West,261,3.6,3.6,51,0.00,,---,0.00,VWS V14.01,2014-01-22 04:01:00,
2014-01-21 21:06:00,30.9,14.9,24.83,NW,305,3.6,4.0,51,0.00,,---,0.00,VWS V14.01,2014-01-22 04:06:00,
2014-01-21 21:11:00,31.1,15.1,24.83,WSW,242,3.6,4.0,51,0.00,,---,0.00,VWS V14.01,2014-01-22 04:11:00,
2014-01-21 21:16:00,30.9,14.9,24.83,West,267,2.7,2.7,51,0.00,,---,0.00,VWS V14.01,2014-01-22 04:16:00,
2014-01-21 21:21:00,30.4,14.0,24.83,West,272,3.6,3.6,50,0.00,,---,0.00,VWS V14.01,2014-01-22 04:21:00,
2014-01-21 21:26:00,29.7,13.8,24.83,West,272,2.7,3.1,51,0.00,,---,0.00,VWS V14.01,2014-01-22 04:26:00,
2014-01-21 21:31:00,29.1,13.7,24.83,WSW,258,2.7,2.7,52,0.00,,---,0.00,VWS V14.01,2014-01-22 04:31:00,
2014-01-21 21:36:00,28.8,13.4,24.83,West,261,4.0,4.0,52,0.00,,---,0.00,VWS V14.01,2014-01-22 04:36:00,
2014-01-21 21:41:00,28.9,14.0,24.83,WSW,258,3.1,4.0,53,0.00,,---,0.00,VWS V14.01,2014-01-22 04:41:00,
2014-01-21 21:46:00,28.9,14.0,24.83,WNW,297,2.7,2.7,53,0.00,,---,0.00,VWS V14.01,2014-01-22 04:46:00,
2014-01-21 21:51:00,28.9,14.4,24.83,WNW,294,2.7,2.7,54,0.00,,---,0.00,VWS V14.01,2014-01-22 04:51:00,
2014-01-21 21:56:00,28.6,14.1,24.83,WNW,298,0.0,0.0,54,0.00,,---,0.00,VWS V14.01,2014-01-22 04:56:00,
2014-01-21 22:01:00,28.6,14.1,24.83,WNW,298,0.0,0.0,54,0.00,,---,0.00,VWS V14.01,2014-01-22 05:01:00,
2014-01-21 22:06:00,28.4,14.3,24.83,WNW,298,2.2,3.6,55,0.00,,---,0.00,VWS V14.01,2014-01-22 05:06:00,
2014-01-21 22:11:00,28.2,14.1,24.83,WNW,298,0.0,0.0,55,0.00,,---,0.00,VWS V14.01,2014-01-22 05:11:00,
2014-01-21 22:16:00,28.0,13.6,24.83,WNW,298,0.0,0.0,54,0.00,,---,0.00,VWS V14.01,2014-01-22 05:16:00,
2014-01-21 22:21:00,27.9,13.4,24.83,WNW,298,0.0,0.0,54,0.00,,---,0.00,VWS V14.01,2014-01-22 05:21:00,
2014-01-21 22:26:00,27.7,13.6,24.83,WNW,298,2.7,3.1,55,0.00,,---,0.00,VWS V14.01,2014-01-22 05:26:00,
2014-01-21 22:31:00,27.5,13.9,24.83,West,267,3.1,4.0,56,0.00,,---,0.00,VWS V14.01,2014-01-22 05:31:00,
2014-01-21 22:36:00,27.5,13.9,24.83,WSW,244,2.7,3.6,56,0.00,,---,0.00,VWS V14.01,2014-01-22 05:36:00,
2014-01-21 22:41:00,27.7,14.0,24.83,WNW,292,2.7,3.1,56,0.00,,---,0.00,VWS V14.01,2014-01-22 05:41:00,
2014-01-21 22:46:00,27.9,14.6,24.83,WSW,250,4.0,4.9,57,0.00,,---,0.00,VWS V14.01,2014-01-22 05:46:00,
2014-01-21 22:51:00,28.0,14.4,24.83,WSW,253,4.5,4.5,56,0.00,,---,0.00,VWS V14.01,2014-01-22 05:51:00,
2014-01-21 22:56:00,28.0,14.4,24.83,WSW,252,4.0,4.0,56,0.00,,---,0.00,VWS V14.01,2014-01-22 05:56:00,
2014-01-21 23:01:00,27.9,14.2,24.83,West,259,3.6,4.9,56,0.00,,---,0.00,VWS V14.01,2014-01-22 06:01:00,
2014-01-21 23:06:00,27.9,14.2,24.83,WSW,247,3.6,4.9,56,0.00,,---,0.00,VWS V14.01,2014-01-22 06:06:00,
2014-01-21 23:11:00,27.9,14.6,24.83,WSW,247,5.8,5.8,57,0.00,,---,0.00,VWS V14.01,2014-01-22 06:11:00,
2014-01-21 23:16:00,28.4,15.5,24.83,WSW,258,3.6,4.9,58,0.00,,---,0.00,VWS V14.01,2014-01-22 06:16:00,
2014-01-21 23:21:00,28.9,15.6,24.83,WSW,255,3.6,4.9,57,0.00,,---,0.00,VWS V14.01,2014-01-22 06:21:00,
2014-01-21 23:26:00,29.3,15.1,24.83,West,262,5.4,5.4,55,0.00,,---,0.00,VWS V14.01,2014-01-22 06:26:00,
2014-01-21 23:31:00,29.1,14.6,24.83,West,268,3.6,4.9,54,0.00,,---,0.00,VWS V14.01,2014-01-22 06:31:00,
2014-01-21 23:36:00,28.8,14.2,24.83,West,259,4.0,4.0,54,0.00,,---,0.00,VWS V14.01,2014-01-22 06:36:00,
2014-01-21 23:41:00,28.6,14.1,24.83,WSW,253,6.3,6.3,54,0.00,,---,0.00,VWS V14.01,2014-01-22 06:41:00,
2014-01-21 23:46:00,28.6,14.5,24.83,West,268,4.0,5.4,55,0.00,,---,0.00,VWS V14.01,2014-01-22 06:46:00,
2014-01-21 23:51:00,28.9,14.8,24.83,West,273,5.8,6.3,55,0.00,,---,0.00,VWS V14.01,2014-01-22 06:51:00,
2014-01-21 23:56:00,28.9,14.8,24.83,West,271,4.9,5.8,55,0.00,,---,0.00,VWS V14.01,2014-01-22 06:56:00,